This is the latest recevied weather packets stored in our database for station/object KI7YRV. If no packets are shown the sender has not sent any weather packets the latest 10 day(s).
| Time | Temp. | Humidity | Pressure | Rain* | Wind** | Luminosity | Snow |
|---|---|---|---|---|---|---|---|
| 1777807837 | 3.89° C | 66% | 1018.4 hPa | 0 mm | - | - | - |
| 1777807221 | 3.89° C | 66% | 1018.4 hPa | 0 mm | - | - | - |
| 1777806625 | 3.89° C | 66% | 1018.4 hPa | 0 mm | - | - | - |
| 1777806030 | 4.44° C | 65% | 1018.4 hPa | 0 mm | - | - | - |
| 1777803016 | 5.56° C | 61% | 1018.2 hPa | 0 mm | - | - | - |
| 1777801230 | 6.11° C | 58% | 1018.2 hPa | 0 mm | - | - | - |
| 1777800616 | 6.67° C | 58% | 1018.2 hPa | 0 mm | - | - | - |
| 1777797619 | 8.33° C | 51% | 1018.2 hPa | 0 mm | - | - | - |
| 1777797018 | 8.89° C | 51% | 1018.2 hPa | 0 mm | - | - | - |
| 1777795219 | 10° C | 45% | 1018.2 hPa | 0 mm | - | - | - |
| 1777794623 | 10° C | 45% | 1018.4 hPa | 0 mm | - | - | - |
| 1777783216 | 13.33° C | 35% | 1017.7 hPa | 0 mm | - | - | - |
| 1777780240 | 17.78° C | 24% | 1017.3 hPa | 0 mm | - | - | - |
| 1777779624 | 16.11° C | 26% | 1017.3 hPa | 0 mm | - | - | - |
| 1777779048 | 16.67° C | 25% | 1017.2 hPa | 0 mm | - | - | - |
| 1777778415 | 17.22° C | 24% | 1017.1 hPa | 0 mm | - | - | - |
| 1777774817 | 17.22° C | 21% | 1016.7 hPa | 0 mm | - | - | - |
| 1777774256 | 17.78° C | 21% | 1016.7 hPa | 0 mm | - | - | - |
| 1777765816 | 23.33° C | 15% | 1017.3 hPa | 0 mm | - | - | - |
| 1777763415 | 21.67° C | 17% | 1017.7 hPa | 0 mm | - | - | - |
| 1777755619 | 23.33° C | 17% | 1019.6 hPa | 0 mm | - | - | - |
| 1777755043 | 22.78° C | 18% | 1019.8 hPa | 0 mm | - | - | - |
| 1777753218 | 21.67° C | 19% | 1020.1 hPa | 0 mm | - | - | - |
| 1777752026 | 23.33° C | 18% | 1020.4 hPa | 0 mm | - | - | - |
| 1777751451 | 21.67° C | 19% | 1020.6 hPa | 0 mm | - | - | - |
* Rain latest hour (hover to see other rain measurements)
** Current wind speed in m/s (hover to see current wind gust speed)